Weather History for KMAN - February, 2012

Change the Weather History Date:

Friday, February 3, 2012

  Actual Average (KBOI) Record (KBOI)
Temperature  
Mean Temperature 34 °F 34 °F  
Max Temperature 44 °F 41 °F 60 °F (1953)
Min Temperature 23 °F 27 °F -11 °F (1883)
Degree Days  
Heating Degree Days 32 31  
Month to date heating degree days 94  
Since 1 July heating degree days 3455  
Cooling Degree Days 0 0  
Month to date cooling degree days 0  
Year to date cooling degree days 0  
Moisture  
Dew Point 24 °F    
Average Humidity 73    
Maximum Humidity 100    
Minimum Humidity 43    
Precipitation  
Precipitation 0.00 in 0.03 in 0.87 in (1881)
Month to date precipitation 0.10  
Year to date precipitation 1.34  
Snow  
Snow 0.00 in 0.10 in 3.20 in (2008)
Month to date snowfall 0.4  
Since 1 July snowfall 15.2  
Snow Depth -    
Sea Level Pressure  
Sea Level Pressure 30.35 in    
Wind  
Wind Speed 5 mph (SE)    
Max Wind Speed 10 mph    
Max Gust Speed -    
Visibility 10 miles    
Events      
T = Trace of Precipitation, MM = Missing Value Source: NWS Daily Summary

Daily Weather History Graph

Daily Weather History Graph

Search for Another Location

Airport or City:

Trip Planner

Search our weather history database for the weather conditions in past years. The results will help you decide how hot, cold, wet, or windy it might be!

Date:

Astronomy

Feb. 03, 2012 Rise Set
Actual Time 8:00 AM MST 5:59 PM MST
Civil Twilight 7:30 AM MST 6:29 PM MST
Nautical Twilight 6:56 AM MST 7:04 PM MST
Astronomical Twilight 6:22 AM MST 7:37 PM MST
Moon 2:00 PM MST (2/3) 4:44 AM MST (2/3)
Length of Visible Light 10h 59m
Length of Day
9h 58m
Waxing Gibbous, 82% of the Moon is Illuminated
Feb 3
Waxing Gibbous
Feb 7
Full
Feb 14
Last Quarter
Feb 21
New
Feb 29
First Quarter

Hourly Weather History & Observations

Time (MST) Temp. Windchill Dew Point Humidity Pressure Visibility Wind Dir Wind Speed Gust Speed Precip Events Conditions
12:15 AM 24.8 °F 20.5 °F 23.0 °F 93% 30.30 in 10.0 mi ESE 3.5 mph - N/A   Clear
12:55 AM 24.8 °F 19.1 °F 23.0 °F 93% 30.31 in 10.0 mi SE 4.6 mph - N/A   Clear
1:15 AM 24.8 °F 19.1 °F 21.2 °F 86% 30.32 in 10.0 mi SSE 4.6 mph - N/A   Clear
1:55 AM 24.8 °F 19.1 °F 23.0 °F 93% 30.32 in 10.0 mi SE 4.6 mph - N/A   Clear
2:15 AM 24.8 °F 17.9 °F 23.0 °F 93% 30.32 in 10.0 mi SE 5.8 mph - N/A   Clear
2:35 AM 26.6 °F 21.2 °F 23.0 °F 86% 30.33 in 10.0 mi SE 4.6 mph - N/A   Clear
2:55 AM 26.6 °F 21.2 °F 23.0 °F 86% 30.33 in 10.0 mi SE 4.6 mph - N/A   Clear
3:15 AM 24.8 °F 17.9 °F 23.0 °F 93% 30.33 in 10.0 mi SE 5.8 mph - N/A   Clear
3:55 AM 24.8 °F 16.9 °F 23.0 °F 93% 30.33 in 10.0 mi SE 6.9 mph - N/A   Clear
4:15 AM 24.8 °F 17.9 °F 23.0 °F 93% 30.33 in 10.0 mi SE 5.8 mph - N/A   Clear
4:35 AM 24.8 °F 19.1 °F 23.0 °F 93% 30.34 in 10.0 mi SE 4.6 mph - N/A   Clear
4:55 AM 24.8 °F 17.9 °F 23.0 °F 93% 30.34 in 10.0 mi SSE 5.8 mph - N/A   Clear
5:15 AM 23.0 °F 17.0 °F 23.0 °F 100% 30.34 in 10.0 mi SE 4.6 mph - N/A   Clear
5:35 AM 24.8 °F 19.1 °F 23.0 °F 93% 30.34 in 10.0 mi SE 4.6 mph - N/A   Clear
5:55 AM 24.8 °F 16.9 °F 23.0 °F 93% 30.34 in 10.0 mi SSE 6.9 mph - N/A   Clear
6:15 AM 24.8 °F 19.1 °F 23.0 °F 93% 30.35 in 10.0 mi SE 4.6 mph - N/A   Clear
6:35 AM 24.8 °F 20.5 °F 23.0 °F 93% 30.35 in 10.0 mi SE 3.5 mph - N/A   Clear
6:55 AM 23.0 °F 18.4 °F 21.2 °F 93% 30.36 in 10.0 mi SE 3.5 mph - N/A   Clear
7:15 AM 24.8 °F - 23.0 °F 93% 30.36 in 10.0 mi Calm Calm - N/A   Clear
7:35 AM 24.8 °F 20.5 °F 23.0 °F 93% 30.37 in 10.0 mi SE 3.5 mph - N/A   Clear
7:55 AM 23.0 °F 18.4 °F 19.4 °F 86% 30.37 in 10.0 mi ESE 3.5 mph - N/A   Clear
8:15 AM 23.0 °F - 19.4 °F 86% 30.38 in 10.0 mi Calm Calm - N/A   Clear
8:35 AM 24.8 °F 19.1 °F 21.2 °F 86% 30.38 in 10.0 mi ESE 4.6 mph - N/A   Clear
8:55 AM 26.6 °F 21.2 °F 23.0 °F 86% 30.38 in 10.0 mi SE 4.6 mph - N/A   Clear
9:15 AM 26.6 °F 21.2 °F 24.8 °F 93% 30.38 in 10.0 mi SE 4.6 mph - N/A   Clear
9:35 AM 28.4 °F 21.2 °F 26.6 °F 93% 30.38 in 10.0 mi SSE 6.9 mph - N/A   Clear
9:55 AM 32.0 °F 25.6 °F 26.6 °F 80% 30.39 in 10.0 mi SSE 6.9 mph - N/A   Clear
10:15 AM 32.0 °F 23.6 °F 26.6 °F 80% 30.39 in 10.0 mi SSE 10.4 mph - N/A   Clear
10:35 AM 33.8 °F 27.0 °F 28.4 °F 81% 30.39 in 10.0 mi SSE 8.1 mph - N/A   Clear
10:55 AM 35.6 °F 29.9 °F 26.6 °F 70% 30.39 in 10.0 mi SSE 6.9 mph - N/A   Clear
11:15 AM 35.6 °F 29.9 °F 28.4 °F 75% 30.39 in 10.0 mi SSE 6.9 mph - N/A   Clear
11:35 AM 37.4 °F 32.1 °F 28.4 °F 70% 30.40 in 10.0 mi SE 6.9 mph - N/A   Clear
11:55 AM 37.4 °F 32.8 °F 28.4 °F 70% 30.39 in 10.0 mi SSE 5.8 mph - N/A   Clear
12:15 PM 39.2 °F 35.0 °F 28.4 °F 65% 30.38 in 10.0 mi SE 5.8 mph - N/A   Clear
12:35 PM 39.2 °F 33.6 °F 28.4 °F 65% 30.38 in 10.0 mi South 8.1 mph - N/A   Clear
12:55 PM 41.0 °F 36.4 °F 28.4 °F 61% 30.37 in 10.0 mi South 6.9 mph - N/A   Clear
1:15 PM 41.0 °F 36.4 °F 28.4 °F 61% 30.36 in 10.0 mi SE 6.9 mph - N/A   Clear
1:35 PM 42.8 °F 38.0 °F 28.4 °F 57% 30.36 in 10.0 mi South 8.1 mph - N/A   Clear
1:55 PM 42.8 °F 38.6 °F 26.6 °F 53% 30.34 in 10.0 mi SSE 6.9 mph - N/A   Clear
2:15 PM 42.8 °F 39.3 °F 26.6 °F 53% 30.34 in 10.0 mi ESE 5.8 mph - N/A   Clear
2:55 PM 44.6 °F 41.4 °F 26.6 °F 49% 30.33 in 10.0 mi SE 5.8 mph - N/A   Clear
3:15 PM 44.6 °F 40.7 °F 26.6 °F 49% 30.33 in 10.0 mi SSE 6.9 mph - N/A   Clear
3:35 PM 44.6 °F 39.7 °F 24.8 °F 46% 30.33 in 10.0 mi SSE 9.2 mph - N/A   Clear
3:55 PM 44.6 °F 39.7 °F 23.0 °F 43% 30.33 in 10.0 mi SE 9.2 mph - N/A   Clear
4:15 PM 44.6 °F 39.7 °F 23.0 °F 43% 30.33 in 10.0 mi SSE 9.2 mph - N/A   Clear
4:35 PM 44.6 °F 39.7 °F 23.0 °F 43% 30.33 in 10.0 mi SE 9.2 mph - N/A   Clear
4:55 PM 42.8 °F 39.3 °F 24.8 °F 49% 30.32 in 10.0 mi SE 5.8 mph - N/A   Clear
5:15 PM 41.0 °F 37.1 °F 23.0 °F 49% 30.32 in 10.0 mi SSE 5.8 mph - N/A   Clear
5:35 PM 41.0 °F 38.0 °F 24.8 °F 53% 30.32 in 10.0 mi SE 4.6 mph - N/A   Clear
5:55 PM 39.2 °F 35.9 °F 23.0 °F 52% 30.32 in 10.0 mi ESE 4.6 mph - N/A   Clear
6:15 PM 37.4 °F 34.9 °F 23.0 °F 56% 30.32 in 10.0 mi SSE 3.5 mph - N/A   Clear
6:35 PM 37.4 °F 34.9 °F 23.0 °F 56% 30.32 in 10.0 mi SSE 3.5 mph - N/A   Clear
6:55 PM 35.6 °F 32.8 °F 24.8 °F 65% 30.33 in 10.0 mi SSE 3.5 mph - N/A   Clear
7:15 PM 32.0 °F 28.7 °F 23.0 °F 69% 30.33 in 10.0 mi ESE 3.5 mph - N/A   Clear
7:35 PM 32.0 °F 27.5 °F 23.0 °F 69% 30.33 in 10.0 mi ESE 4.6 mph - N/A   Clear
7:55 PM 32.0 °F 28.7 °F 23.0 °F 69% 30.33 in 10.0 mi ESE 3.5 mph - N/A   Clear
8:15 PM 33.8 °F 30.8 °F 23.0 °F 65% 30.33 in 10.0 mi East 3.5 mph - N/A   Clear
8:35 PM 32.0 °F 27.5 °F 24.8 °F 75% 30.32 in 10.0 mi East 4.6 mph - N/A   Clear
8:55 PM 32.0 °F 27.5 °F 23.0 °F 69% 30.32 in 10.0 mi ESE 4.6 mph - N/A   Clear
9:15 PM 28.4 °F - 24.8 °F 86% 30.32 in 10.0 mi Calm Calm - N/A   Clear
9:35 PM 26.6 °F - 23.0 °F 86% 30.33 in 10.0 mi Calm Calm - N/A   Clear
9:55 PM 26.6 °F - 23.0 °F 86% 30.33 in 10.0 mi Calm Calm - N/A   Clear
10:15 PM 26.6 °F 22.6 °F 24.8 °F 93% 30.33 in 10.0 mi SSE 3.5 mph - N/A   Clear
10:55 PM 26.6 °F 22.6 °F 23.0 °F 86% 30.34 in 10.0 mi SE 3.5 mph - N/A   Clear
11:15 PM 26.6 °F 22.6 °F 23.0 °F 86% 30.34 in 10.0 mi SE 3.5 mph - N/A   Clear
11:35 PM 26.6 °F 22.6 °F 21.2 °F 80% 30.34 in 10.0 mi ESE 3.5 mph - N/A   Clear
11:55 PM 26.6 °F 21.2 °F 21.2 °F 80% 30.34 in 10.0 mi ESE 4.6 mph - N/A   Clear